Voltar ao catálogo

LIBERTAD 1

AtivoRádio AmadorSSO
NORAD 31128·PAYLOAD·🇨🇴 Colombia

Lançado Apr 17, 2007 de Baikonur Cosmodrome

Loading…

Próximas Passagens (próximas 24 horas)

TLE

AtualizadoSource: Space-Track

Época: Sep 14, 2026, 03:23 UTC

1 31128U 07012M   26257.14134678  .00000646  00000-0  12716-3 0  9997
2 31128  98.4497 229.3019 0084865 162.4064 198.0109 14.63936936 31280

Acompanhe LIBERTAD 1 em tempo real com AllMySat

Download on the App Store